You are listening to:
YSBK ATIS - Bankstown, New South Wales, Australia

YSSY 241830Z 01008KT CAVOK 24/20 Q1008

If stream doesn't start automatically press the play button
If stream stops then reload player then press play